Location: East Guldeford
(50.9500°N, 0.7500°E)
Time: 09:37:11
(UTC+00:00)

SL-24 R/B - RUBIN 2 - Pass Details

Date: 12 May 2021
Orbit: 583 x 1012 km, 64.6° (Epoch: 16 June)

Event Time Altitude Azimuth Distance (km) Brightness Sun altitude
Rises 21:33:33 0° 317° (NW) 3,473 9.2 -14.2°
Reaches altitude 10° 21:36:11 10° 319° (NW) 2,464 8.0 -14.4°
Maximum altitude 21:41:51 77° 46° (NE) 789 4.1 -14.9°
Enters shadow 21:45:03 23° 130° (SE) 1,509 5.0 -15.2°
